Terug naar catalogus

STARLINK-34203

ActiefCommunicatieVLEO
NORAD 64246·PAYLOAD·🇺🇸 United States

Gelanceerd Jun 3, 2025 vanaf Cape Canaveral Space Force Station

Loading…

Volgende Passages (komende 24 uur)

TLE

VersSource: CelesTrak SupGP

Epoch: Sep 14, 2026, 21:41 UTC

1 64246C 25119P   26257.90395833 -.00022242  00000+0 -80577-3 0  2572
2 64246  43.0016 318.3828 0001567 265.5895 259.3576 15.27582123    14

Volg STARLINK-34203 in realtime met AllMySat

Download on the App Store